Location: Santa Giusta
(39.8800°N, 8.6069°E)
Time: 16:53:29
(UTC+00:00)

Cosmos 1461 - Pass Details

Date: 02 February 2023
Orbit: 492 x 643 km, 65.0° (Epoch: 31 March)

Event Time Altitude Azimuth Distance (km) Brightness Sun altitude
Rises 17:24:14 0° 194° (SSW) 2,695 6.8 -7.8°
Reaches altitude 10° 17:26:26 10° 187° (S) 1,833 5.8 -8.3°
Maximum altitude 17:30:22 44° 116° (ESE) 809 3.3 -9.0°
Drops below altitude 10° 17:34:31 10° 44° (NE) 1,943 5.1 -9.8°
Enters shadow 17:34:52 - 43° (NE) 2,077 5.3 -9.8°
